Content
SEND FEEDBACK

Daily
Averages
Monthly
Summary
United States of America

WICHITA, KANSAS


Home > North America > United States > Kansas
Elevation: 1321 feet     Latitude: 37 39N     Longitude: 097 26W

WEATHER
 
SELECT A DAY
Number of Records: 195,701;   Date Range: 1/1/95 - 11/26/14
 
SHARE

PRINT THIS DATA

[ ← Previous Day ]
WEATHER ALMANAC - FEBRUARY 9, 2013
[ Next Day → ]
[ °C ]   °F
Weather ElementAverageHighLow
Temperature41.1 °F48.9 °F (12:53 pm)34 °F (1:53 am)
Dewpoint36.7 °F43 °F (11:53 pm)30.9 °F (1:53 am)
Humidity85.2 %100 % (9:33 pm)66 % (12:53 pm)
Barometer29.89 in30.12 in (1:53 am)29.62 in (11:53 pm)
Wind Speed16.9 mph24.2 mph (12:53 pm)
Wind Gust34.5 mph (12:53 pm)
Weather ElementAverage
Visibility6.6 mi
Wind DirectionSSE (152.7 °)

Weather ElementTotal
Precipitation0.02 in
Heating Degree Days23.6 (Base 65)
Averaged from 30 records on February 9, 2013
WEATHER CONDITIONS BREAKOUT
WIND DIRECTION BREAKOUT
WEATHER BY HOUR - FEBRUARY 9, 2013
[ °C ]   °F
Local TimeTemperatureDewpointHumidityBarometerVisibilityWind DirectionWind SpeedGust SpeedPrecipitationEventsConditions
1:53 AM34.0 °F30.9 °F89 %30.12 in6.0 miSSE (150°)10.4 mphClear
2:53 AM35.1 °F32.0 °F89 %30.11 in6.0 miSE (140°)8.1 mphMostly Cloudy
3:53 AM35.1 °F30.9 °F85 %30.08 in7.0 miSE (130°)6.9 mphMostly Cloudy
4:53 AM35.1 °F30.9 °F85 %30.07 in7.0 miSE (140°)8.1 mphPartly Cloudy
5:53 AM36.0 °F32.0 °F86 %30.06 in8.0 miSSE (160°)12.7 mphPartly Cloudy
6:53 AM37.0 °F32.0 °F82 %30.06 in8.0 miSSE (160°)12.7 mphMostly Cloudy
7:53 AM37.9 °F33.1 °F83 %30.05 in10.0 miSSE (160°)15.0 mphMostly Cloudy
8:53 AM39.9 °F34.0 °F79 %30.05 in10.0 miSSE (160°)18.4 mph25.3 mphMostly Cloudy
9:53 AM43.0 °F37.0 °F80 %30.04 in10.0 miSSE (160°)21.9 mph27.6 mphMostly Cloudy
10:16 AM44.6 °F37.4 °F76 %30.01 in10.0 miSSE (160°)16.1 mph27.6 mphMostly Cloudy
10:53 AM46.9 °F37.9 °F71 %30.01 in10.0 miSSE (160°)17.3 mph28.8 mphMostly Cloudy
11:53 AM48.0 °F37.9 °F68 %29.98 in10.0 miSSE (160°)19.6 mphMostly Cloudy
12:53 PM48.9 °F37.9 °F66 %29.93 in10.0 miSSE (160°)24.2 mph34.5 mphMostly Cloudy
1:07 PM46.4 °F39.2 °F76 %29.91 in7.0 miSouth (170°)18.4 mph26.5 mph0.00 inRainLight Rain
1:53 PM46.9 °F41.0 °F80 %29.88 in10.0 miSSE (150°)16.1 mph23.0 mph0.01 inOvercast
2:53 PM46.0 °F37.0 °F71 %29.85 in10.0 miSSE (160°)18.4 mph27.6 mphOvercast
3:53 PM43.0 °F36.0 °F76 %29.84 in10.0 miSSE (160°)17.3 mph23.0 mphOvercast
4:24 PM42.8 °F37.4 °F81 %29.80 in7.0 miSSE (160°)20.7 mph33.4 mphOvercast
4:43 PM42.8 °F37.4 °F81 %29.78 in7.0 miSE (140°)18.4 mph26.5 mphOvercast
4:53 PM41.0 °F37.0 °F86 %29.80 in6.0 miSE (140°)18.4 mph26.5 mphOvercast
5:35 PM39.2 °F37.4 °F93 %29.77 in3.0 miSE (140°)19.6 mph0.00 inLight Drizzle
5:53 PM39.9 °F37.9 °F93 %29.78 in4.0 miSSE (150°)15.0 mph23.0 mph0.00 inOvercast
6:53 PM39.9 °F37.9 °F93 %29.79 in5.0 miSSE (150°)16.1 mphOvercast
7:53 PM39.9 °F37.9 °F93 %29.76 in5.0 miSE (140°)20.7 mph26.5 mph0.00 inOvercast
8:53 PM39.9 °F39.0 °F97 %29.72 in2.5 miSSE (150°)21.9 mph28.8 mph0.00 inLight Drizzle
9:33 PM39.2 °F39.2 °F100 %29.68 in2.0 miSE (140°)20.7 mph29.9 mph0.00 inLight Drizzle
9:42 PM39.2 °F39.2 °F100 %29.68 in1.5 miSSE (150°)24.2 mph28.8 mph0.00 inLight Drizzle
9:53 PM39.9 °F39.9 °F100 %29.69 in1.5 miSSE (150°)13.8 mph23.0 mph0.00 inLight Drizzle
10:53 PM42.1 °F42.1 °F100 %29.69 in1.5 miSouth (170°)12.7 mph0.00 inRainLight Rain
11:53 PM44.1 °F43.0 °F96 %29.62 in1.5 miSSE (160°)23.0 mph29.9 mph0.01 inRainLight Rain
Hourly data recorded from KICT, located miles away from Wichita, Kansas







STORIES FROM OUR PARTNERS